Flag for Austria Past Weather in Feldkirchen in Kärnten, Carinthia, Austria — Yesterday and Last 2 Weeks

Now
60 °F

Passing clouds.


Feels Like: 60 °F
Forecast: 49 / 74 °F
Wind: N/A

Location: Klagenfurt-Flughafen

Current Time: Aug 25, 2016 at 5:09:25 AM

Latest Report: Aug 25, 2016 at 4:00 AM


Visibility: 16 mi

Pressure: 30.24 "Hg (28.36 "Hg at 541m altitude)

Humidity: 87%

Dew Point: 56 °F

Location of Feldkirchen in KärntenLocation

Past Weather in Feldkirchen in Kärnten — Graph

°F

Feldkirchen in Kärnten Temperature Yesterday

Maximum temperature yesterday: 78 °F (at 5:00 PM)
Minimum temperature yesterday: 54 °F (at 6:00 AM)
Average temperature yesterday: 66 °F

High & Low Weather Summary for the Past Weeks

 TemperatureHumidityPressure
High83 °F (Aug 14, 6:00 PM)96% (Aug 10, 11:00 PM)30.41 "Hg (Aug 10, 11:00 PM)
Low45 °F (Aug 12, 6:00 AM)42% (Aug 14, 3:00 PM)29.79 "Hg (Aug 17, 4:00 PM)
Average64 °F76%30.10 "Hg
* Reported Aug 10 4:00 AM — Aug 25 4:00 AM, Feldkirchen in Kärnten, Weather by CustomWeather, © 2016

Note: Actual official high and low records may vary slightly from our data, if they occured in-between our weather recording intervals... More about our weather records

Advertising

Feldkirchen in Kärnten Weather History for the Previous 24 Hours

Scroll right to see more
 ConditionsComfort  
Time TempWeatherWind HumidityBarometerVisibility
4:00 AM
Thu, Aug 25
60 °FPassing clouds.N/A87%30.24 "Hg16 mi
3:00 AM63 °FPassing clouds.N/A81%30.23 "Hg13 mi
2:00 AM64 °FOvercast.N/A81%30.23 "Hg19 mi
1:00 AM63 °FOvercast.N/A82%30.24 "Hg19 mi
12:00 AM63 °FPassing clouds.N/A83%30.24 "Hg22 mi
11:00 PM
Wed, Aug 24
64 °FPassing clouds.N/A79%30.23 "Hg25 mi
10:00 PM64 °FClear.N/A73%30.22 "Hg31 mi
9:00 PM72 °FPassing clouds.N/A55%30.19 "Hg31 mi
8:00 PM73 °FPassing clouds.N/A55%30.17 "Hg25 mi
7:00 PM76 °FPassing clouds.N/A48%30.16 "Hg22 mi
6:00 PM78 °FPassing clouds.N/A47%30.16 "Hg25 mi
5:00 PM78 °FPassing clouds.N/A48%30.16 "Hg19 mi
4:00 PM78 °FPassing clouds.N/A45%30.17 "Hg18 mi
3:00 PM78 °FPassing clouds.N/A48%30.18 "Hg17 mi
2:00 PM77 °FPassing clouds.N/A52%30.20 "Hg22 mi
1:00 PM74 °FPassing clouds.N/A52%30.22 "Hg10 mi
12:00 PM72 °FPassing clouds.N/A55%30.25 "Hg16 mi
11:00 AM69 °FPassing clouds.N/A65%30.27 "Hg22 mi
10:00 AM65 °FPassing clouds.N/A71%30.29 "Hg19 mi
9:00 AM62 °FPassing clouds.N/A82%30.31 "Hg22 mi
8:00 AM58 °FPassing clouds.N/A84%30.33 "Hg14 mi
7:00 AM54 °FPassing clouds.N/A93%30.33 "Hg11 mi
6:00 AM54 °FLight rain. Passing clouds.N/A94%30.32 "Hg1 mi
5:00 AM54 °FCool.N/A94%30.31 "Hg6 mi
Weather by CustomWeather, © 2016

See weather overviewHow to use our weather pages